Year,Month,Day,Hour,Minute,Value (Times are PST for temperature in C)
2012,03,25,00,00,1.90
2012,03,25,00,01,1.90
2012,03,25,00,02,1.90
2012,03,25,00,03,1.90
2012,03,25,00,04,1.90
2012,03,25,00,05,1.90
2012,03,25,00,06,1.90
2012,03,25,00,07,1.90
2012,03,25,00,08,1.90
2012,03,25,00,09,1.90
2012,03,25,00,10,1.90
2012,03,25,00,11,1.90
2012,03,25,00,12,2.00
2012,03,25,00,13,2.00
2012,03,25,00,14,2.00
2012,03,25,00,15,2.00
2012,03,25,00,16,1.90
2012,03,25,00,17,1.90
2012,03,25,00,18,1.90
2012,03,25,00,19,1.90
2012,03,25,00,20,1.90
2012,03,25,00,21,1.90
2012,03,25,00,22,1.90
2012,03,25,00,23,1.90
2012,03,25,00,24,1.90
2012,03,25,00,25,1.90
2012,03,25,00,26,1.90
2012,03,25,00,27,1.90
2012,03,25,00,28,1.90
2012,03,25,00,29,1.90
2012,03,25,00,30,1.90
2012,03,25,00,31,1.90
2012,03,25,00,32,1.90
2012,03,25,00,33,1.90
2012,03,25,00,34,1.90
2012,03,25,00,35,1.90
2012,03,25,00,36,1.90
2012,03,25,00,37,1.90
2012,03,25,00,38,1.90
2012,03,25,00,39,1.90
2012,03,25,00,40,1.90
2012,03,25,00,41,1.90
2012,03,25,00,42,1.90
2012,03,25,00,43,1.90
2012,03,25,00,44,1.90
2012,03,25,00,45,2.00
2012,03,25,00,46,2.00
2012,03,25,00,47,2.00
2012,03,25,00,48,2.00
2012,03,25,00,49,2.00
2012,03,25,00,50,2.00
2012,03,25,00,51,2.00
2012,03,25,00,52,2.00
2012,03,25,00,53,2.00
2012,03,25,00,54,2.00
2012,03,25,00,55,1.90
2012,03,25,00,56,1.90
2012,03,25,00,57,1.90
2012,03,25,00,58,1.90
2012,03,25,00,59,1.90
2012,03,25,01,00,1.90
2012,03,25,01,01,2.00
2012,03,25,01,02,2.00
2012,03,25,01,03,1.90
2012,03,25,01,04,1.90
2012,03,25,01,05,1.90
2012,03,25,01,06,1.90
2012,03,25,01,07,1.90
2012,03,25,01,08,1.90
2012,03,25,01,09,1.90
2012,03,25,01,10,1.90
2012,03,25,01,11,1.90
2012,03,25,01,12,1.90
2012,03,25,01,13,2.00
2012,03,25,01,14,2.00
2012,03,25,01,15,2.00
2012,03,25,01,16,2.00
2012,03,25,01,17,2.00
2012,03,25,01,18,2.00
2012,03,25,01,19,2.10
2012,03,25,01,20,2.10
2012,03,25,01,21,2.10
2012,03,25,01,22,2.10
2012,03,25,01,23,2.10
2012,03,25,01,24,2.10
2012,03,25,01,25,2.10
2012,03,25,01,26,2.10
2012,03,25,01,27,2.10
2012,03,25,01,28,2.00
2012,03,25,01,29,2.00
2012,03,25,01,30,2.00
2012,03,25,01,31,2.00
2012,03,25,01,32,2.00
2012,03,25,01,33,2.00
2012,03,25,01,34,2.00
2012,03,25,01,35,2.00
2012,03,25,01,36,2.00
2012,03,25,01,37,2.00
2012,03,25,01,38,1.90
2012,03,25,01,39,1.90
2012,03,25,01,40,2.00
2012,03,25,01,41,1.90
2012,03,25,01,42,1.90
2012,03,25,01,43,1.90
2012,03,25,01,44,1.80
2012,03,25,01,45,1.80
2012,03,25,01,46,1.90
2012,03,25,01,47,2.00
2012,03,25,01,48,2.00
2012,03,25,01,49,2.10
2012,03,25,01,50,2.10
2012,03,25,01,51,2.10
2012,03,25,01,52,2.10
2012,03,25,01,53,2.10
2012,03,25,01,54,2.10
2012,03,25,01,55,2.20
2012,03,25,01,56,2.20
2012,03,25,01,57,2.20
2012,03,25,01,58,2.20
2012,03,25,01,59,2.20
2012,03,25,02,00,2.30
2012,03,25,02,01,2.30
2012,03,25,02,02,2.30
2012,03,25,02,03,2.30
2012,03,25,02,04,2.30
2012,03,25,02,05,2.30
2012,03,25,02,06,2.30
2012,03,25,02,07,2.40
2012,03,25,02,08,2.40
2012,03,25,02,09,2.40
2012,03,25,02,10,2.40
2012,03,25,02,11,2.40
2012,03,25,02,12,2.40
2012,03,25,02,13,2.40
2012,03,25,02,14,2.40
2012,03,25,02,15,2.40
2012,03,25,02,16,2.30
2012,03,25,02,17,2.30
2012,03,25,02,18,2.30
2012,03,25,02,19,2.30
2012,03,25,02,20,2.30
2012,03,25,02,21,2.30
2012,03,25,02,22,2.30
2012,03,25,02,23,2.30
2012,03,25,02,24,2.30
2012,03,25,02,25,2.30
2012,03,25,02,26,2.30
2012,03,25,02,27,2.40
2012,03,25,02,28,2.40
2012,03,25,02,29,2.40
2012,03,25,02,30,2.40
2012,03,25,02,31,2.40
2012,03,25,02,32,2.30
2012,03,25,02,33,2.30
2012,03,25,02,34,2.30
2012,03,25,02,35,2.30
2012,03,25,02,36,2.30
2012,03,25,02,37,2.30
2012,03,25,02,38,2.30
2012,03,25,02,39,2.30
2012,03,25,02,40,2.30
2012,03,25,02,41,2.30
2012,03,25,02,42,2.30
2012,03,25,02,43,2.30
2012,03,25,02,44,2.30
2012,03,25,02,45,2.30
2012,03,25,02,46,2.30
2012,03,25,02,47,2.30
2012,03,25,02,48,2.30
2012,03,25,02,49,2.30
2012,03,25,02,50,2.30
2012,03,25,02,51,2.20
2012,03,25,02,52,2.20
2012,03,25,02,53,2.20
2012,03,25,02,54,2.20
2012,03,25,02,55,2.20
2012,03,25,02,56,2.20
2012,03,25,02,57,2.20
2012,03,25,02,58,2.20
2012,03,25,02,59,2.20
2012,03,25,03,00,2.20
2012,03,25,03,01,2.20
2012,03,25,03,02,2.20
2012,03,25,03,03,2.20
2012,03,25,03,04,2.20
2012,03,25,03,05,2.20
2012,03,25,03,06,2.20
2012,03,25,03,07,2.20
2012,03,25,03,08,2.20
2012,03,25,03,09,2.20
2012,03,25,03,10,2.20
2012,03,25,03,11,2.20
2012,03,25,03,12,2.10
2012,03,25,03,13,2.10
2012,03,25,03,14,2.10
2012,03,25,03,15,2.00
2012,03,25,03,16,2.00
2012,03,25,03,17,2.00
2012,03,25,03,18,2.00
2012,03,25,03,19,2.00
2012,03,25,03,20,2.00
2012,03,25,03,21,2.00
2012,03,25,03,22,2.00
2012,03,25,03,23,2.00
2012,03,25,03,24,2.00
2012,03,25,03,25,2.00
2012,03,25,03,26,2.10
2012,03,25,03,27,2.10
2012,03,25,03,28,2.10
2012,03,25,03,29,2.10
2012,03,25,03,30,2.10
2012,03,25,03,31,2.00
2012,03,25,03,32,2.00
2012,03,25,03,33,2.00
2012,03,25,03,34,2.00
2012,03,25,03,35,2.00
2012,03,25,03,36,2.00
2012,03,25,03,37,2.10
2012,03,25,03,38,2.10
2012,03,25,03,39,2.00
2012,03,25,03,40,2.10
2012,03,25,03,41,2.10
2012,03,25,03,42,2.10
2012,03,25,03,43,2.10
2012,03,25,03,44,2.10
2012,03,25,03,45,2.10
2012,03,25,03,46,2.10
2012,03,25,03,47,2.10
2012,03,25,03,48,2.10
2012,03,25,03,49,2.10
2012,03,25,03,50,2.20
2012,03,25,03,51,2.20
2012,03,25,03,52,2.20
2012,03,25,03,53,2.20
2012,03,25,03,54,2.20
2012,03,25,03,55,2.20
2012,03,25,03,56,2.20
2012,03,25,03,57,2.10
2012,03,25,03,58,2.10
2012,03,25,03,59,2.10
2012,03,25,04,00,2.10
2012,03,25,04,01,2.00
2012,03,25,04,02,2.10
2012,03,25,04,03,2.10
2012,03,25,04,04,2.10
2012,03,25,04,05,2.10
2012,03,25,04,06,2.10
2012,03,25,04,07,2.10
2012,03,25,04,08,2.10
2012,03,25,04,09,2.20
2012,03,25,04,10,2.20
2012,03,25,04,11,2.20
2012,03,25,04,12,2.20
2012,03,25,04,13,2.20
2012,03,25,04,14,2.20
2012,03,25,04,15,2.20
2012,03,25,04,16,2.20
2012,03,25,04,17,2.20
2012,03,25,04,18,2.20
2012,03,25,04,19,2.20
2012,03,25,04,20,2.10
2012,03,25,04,21,2.10
2012,03,25,04,22,2.10
2012,03,25,04,23,2.20
2012,03,25,04,24,2.20
2012,03,25,04,25,2.20
2012,03,25,04,26,2.10
2012,03,25,04,27,2.10
2012,03,25,04,28,2.10
2012,03,25,04,29,2.10
2012,03,25,04,30,2.10
2012,03,25,04,31,2.10
2012,03,25,04,32,2.10
2012,03,25,04,33,2.20
2012,03,25,04,34,2.20
2012,03,25,04,35,2.20
2012,03,25,04,36,2.10
2012,03,25,04,37,2.10
2012,03,25,04,38,2.10
2012,03,25,04,39,2.20
2012,03,25,04,40,2.20
2012,03,25,04,41,2.20
2012,03,25,04,42,2.20
2012,03,25,04,43,2.20
2012,03,25,04,44,2.20
2012,03,25,04,45,2.20
2012,03,25,04,46,2.10
2012,03,25,04,47,2.10
2012,03,25,04,48,2.10
2012,03,25,04,49,2.10
2012,03,25,04,50,2.10
2012,03,25,04,51,2.10
2012,03,25,04,52,2.10
2012,03,25,04,53,2.10
2012,03,25,04,54,2.10
2012,03,25,04,55,2.10
2012,03,25,04,56,2.10
2012,03,25,04,57,2.10
2012,03,25,04,58,2.10
2012,03,25,04,59,2.00
2012,03,25,05,00,2.00
2012,03,25,05,01,2.00
2012,03,25,05,02,2.00
2012,03,25,05,03,2.00
2012,03,25,05,04,1.90
2012,03,25,05,05,1.90
2012,03,25,05,06,1.90
2012,03,25,05,07,1.90
2012,03,25,05,08,1.90
2012,03,25,05,09,1.90
2012,03,25,05,10,1.90
2012,03,25,05,11,1.90
2012,03,25,05,12,1.80
2012,03,25,05,13,1.80
2012,03,25,05,14,1.80
2012,03,25,05,15,1.80
2012,03,25,05,16,1.80
2012,03,25,05,17,1.80
2012,03,25,05,18,1.80
2012,03,25,05,19,1.80
2012,03,25,05,20,1.80
2012,03,25,05,21,1.80
2012,03,25,05,22,1.80
2012,03,25,05,23,1.80
2012,03,25,05,24,1.80
2012,03,25,05,25,1.70
2012,03,25,05,26,1.70
2012,03,25,05,27,1.70
2012,03,25,05,28,1.70
2012,03,25,05,29,1.70
2012,03,25,05,30,1.70
2012,03,25,05,31,1.70
2012,03,25,05,32,1.70
2012,03,25,05,33,1.70
2012,03,25,05,34,1.70
2012,03,25,05,35,1.70
2012,03,25,05,36,1.70
2012,03,25,05,37,1.70
2012,03,25,05,38,1.70
2012,03,25,05,39,1.70
2012,03,25,05,40,1.70
2012,03,25,05,41,1.70
2012,03,25,05,42,1.70
2012,03,25,05,43,1.70
2012,03,25,05,44,1.70
2012,03,25,05,45,1.70
2012,03,25,05,46,1.70
2012,03,25,05,47,1.70
2012,03,25,05,48,1.70
2012,03,25,05,49,1.70
2012,03,25,05,50,1.70
2012,03,25,05,51,1.70
2012,03,25,05,52,1.70
2012,03,25,05,53,1.70
2012,03,25,05,54,1.70
2012,03,25,05,55,1.70
2012,03,25,05,56,1.70
2012,03,25,05,57,1.70
2012,03,25,05,58,1.70
2012,03,25,05,59,1.70
2012,03,25,06,00,1.80
2012,03,25,06,01,1.80
2012,03,25,06,02,1.80
2012,03,25,06,03,1.80
2012,03,25,06,04,1.80
2012,03,25,06,05,1.80
2012,03,25,06,06,1.80
2012,03,25,06,07,1.80
2012,03,25,06,08,1.90
2012,03,25,06,09,1.90
2012,03,25,06,10,1.90
2012,03,25,06,11,1.90
2012,03,25,06,12,1.90
2012,03,25,06,13,1.90
2012,03,25,06,14,1.90
2012,03,25,06,15,1.90
2012,03,25,06,16,1.90
2012,03,25,06,17,1.90
2012,03,25,06,18,1.90
2012,03,25,06,19,1.90
2012,03,25,06,20,1.90
2012,03,25,06,21,1.90
2012,03,25,06,22,1.90
2012,03,25,06,23,1.90
2012,03,25,06,24,1.90
2012,03,25,06,25,1.80
2012,03,25,06,26,1.80
2012,03,25,06,27,1.80
2012,03,25,06,28,1.90
2012,03,25,06,29,1.90
2012,03,25,06,30,1.90
2012,03,25,06,31,1.90
2012,03,25,06,32,1.90
2012,03,25,06,33,1.90
2012,03,25,06,34,1.90
2012,03,25,06,35,1.90
2012,03,25,06,36,1.90
2012,03,25,06,37,1.90
2012,03,25,06,38,1.90
2012,03,25,06,39,1.90
2012,03,25,06,40,1.90
2012,03,25,06,41,1.90
2012,03,25,06,42,1.90
2012,03,25,06,43,1.80
2012,03,25,06,44,1.80
2012,03,25,06,45,1.80
2012,03,25,06,46,1.70
2012,03,25,06,47,1.70
2012,03,25,06,48,1.70
2012,03,25,06,49,1.60
2012,03,25,06,50,1.60
2012,03,25,06,51,1.60
2012,03,25,06,52,1.60
2012,03,25,06,53,1.60
2012,03,25,06,54,1.60
2012,03,25,06,55,1.60
2012,03,25,06,56,1.60
2012,03,25,06,57,1.60
2012,03,25,06,58,1.60
2012,03,25,06,59,1.60
2012,03,25,07,00,1.60
2012,03,25,07,01,1.60
2012,03,25,07,02,1.60
2012,03,25,07,03,1.70
2012,03,25,07,04,1.70
2012,03,25,07,05,1.70
2012,03,25,07,06,1.70
2012,03,25,07,07,1.60
2012,03,25,07,08,1.60
2012,03,25,07,09,1.60
2012,03,25,07,10,1.60
2012,03,25,07,11,1.70
2012,03,25,07,12,1.70
2012,03,25,07,13,1.70
2012,03,25,07,14,1.70
2012,03,25,07,15,1.70
2012,03,25,07,16,1.70
2012,03,25,07,17,1.70
2012,03,25,07,18,1.70
2012,03,25,07,19,1.70
2012,03,25,07,20,1.70
2012,03,25,07,21,1.70
2012,03,25,07,22,1.70
2012,03,25,07,23,1.70
2012,03,25,07,24,1.60
2012,03,25,07,25,1.60
2012,03,25,07,26,1.60
2012,03,25,07,27,1.70
2012,03,25,07,28,1.70
2012,03,25,07,29,1.70
2012,03,25,07,30,1.70
2012,03,25,07,31,1.70
2012,03,25,07,32,1.70
2012,03,25,07,33,1.70
2012,03,25,07,34,1.70
2012,03,25,07,35,1.70
2012,03,25,07,36,1.70
2012,03,25,07,37,1.70
2012,03,25,07,38,1.70
2012,03,25,07,39,1.70
2012,03,25,07,40,1.70
2012,03,25,07,41,1.70
2012,03,25,07,42,1.70
2012,03,25,07,43,1.70
2012,03,25,07,44,1.60
2012,03,25,07,45,1.60
2012,03,25,07,46,1.60
2012,03,25,07,47,1.60
2012,03,25,07,48,1.70
2012,03,25,07,49,1.70
2012,03,25,07,50,1.70
2012,03,25,07,51,1.70
2012,03,25,07,52,1.70
2012,03,25,07,53,1.70
2012,03,25,07,54,1.70
2012,03,25,07,55,1.60
2012,03,25,07,56,1.70
2012,03,25,07,57,1.70
2012,03,25,07,58,1.70
2012,03,25,07,59,1.80
2012,03,25,08,00,1.80
2012,03,25,08,01,1.90
2012,03,25,08,02,1.90
2012,03,25,08,03,1.90
2012,03,25,08,04,1.90
2012,03,25,08,05,1.90
2012,03,25,08,06,1.80
2012,03,25,08,07,1.90
2012,03,25,08,08,1.90
2012,03,25,08,09,1.90
2012,03,25,08,10,1.90
2012,03,25,08,11,1.90
2012,03,25,08,12,2.00
2012,03,25,08,13,2.00
2012,03,25,08,14,2.10
2012,03,25,08,15,2.10
2012,03,25,08,16,2.20
2012,03,25,08,17,2.20
2012,03,25,08,18,2.20
2012,03,25,08,19,2.30
2012,03,25,08,20,2.30
2012,03,25,08,21,2.40
2012,03,25,08,22,2.40
2012,03,25,08,23,2.50
2012,03,25,08,24,2.50
2012,03,25,08,25,2.60
2012,03,25,08,26,2.60
2012,03,25,08,27,2.70
2012,03,25,08,28,2.80
2012,03,25,08,29,2.80
2012,03,25,08,30,2.90
2012,03,25,08,31,2.90
2012,03,25,08,32,3.00
2012,03,25,08,33,3.10
2012,03,25,08,34,3.20
2012,03,25,08,35,3.20
2012,03,25,08,36,3.30
2012,03,25,08,37,3.40
2012,03,25,08,38,3.40
2012,03,25,08,39,3.50
2012,03,25,08,40,3.60
2012,03,25,08,41,3.60
2012,03,25,08,42,3.70
2012,03,25,08,43,3.70
2012,03,25,08,44,3.80
2012,03,25,08,45,3.80
2012,03,25,08,46,3.80
2012,03,25,08,47,3.90
2012,03,25,08,48,3.90
2012,03,25,08,49,4.00
2012,03,25,08,50,4.10
2012,03,25,08,51,4.10
2012,03,25,08,52,4.20
2012,03,25,08,53,4.30
2012,03,25,08,54,4.40
2012,03,25,08,55,4.40
2012,03,25,08,56,4.50
2012,03,25,08,57,4.60
2012,03,25,08,58,4.60
2012,03,25,08,59,4.70
2012,03,25,09,00,4.80
2012,03,25,09,01,4.90
2012,03,25,09,02,5.00
2012,03,25,09,03,5.20
2012,03,25,09,04,5.40
2012,03,25,09,05,5.50
2012,03,25,09,06,5.70
2012,03,25,09,07,5.80
2012,03,25,09,08,5.80
2012,03,25,09,09,5.80
2012,03,25,09,10,5.80
2012,03,25,09,11,5.90
2012,03,25,09,12,5.90
2012,03,25,09,13,5.90
2012,03,25,09,14,5.90
2012,03,25,09,15,5.90
2012,03,25,09,16,6.00
2012,03,25,09,17,6.10
2012,03,25,09,18,6.20
2012,03,25,09,19,6.30
2012,03,25,09,20,6.50
2012,03,25,09,21,6.60
2012,03,25,09,22,6.70
2012,03,25,09,23,6.80
2012,03,25,09,24,6.80
2012,03,25,09,25,6.90
2012,03,25,09,26,6.90
2012,03,25,09,27,7.00
2012,03,25,09,28,7.10
2012,03,25,09,29,7.10
2012,03,25,09,30,7.20
2012,03,25,09,31,7.20
2012,03,25,09,32,7.20
2012,03,25,09,33,7.20
2012,03,25,09,34,7.30
2012,03,25,09,35,7.30
2012,03,25,09,36,7.40
2012,03,25,09,37,7.40
2012,03,25,09,38,7.40
2012,03,25,09,39,7.40
2012,03,25,09,40,7.40
2012,03,25,09,41,7.40
2012,03,25,09,42,7.50
2012,03,25,09,43,7.50
2012,03,25,09,44,7.50
2012,03,25,09,45,7.60
2012,03,25,09,46,7.60
2012,03,25,09,47,7.70
2012,03,25,09,48,7.70
2012,03,25,09,49,7.70
2012,03,25,09,50,7.80
2012,03,25,09,51,7.80
2012,03,25,09,52,7.80
2012,03,25,09,53,7.80
2012,03,25,09,54,7.80
2012,03,25,09,55,7.80
2012,03,25,09,56,7.90
2012,03,25,09,57,7.90
2012,03,25,09,58,8.00
2012,03,25,09,59,8.00
2012,03,25,10,00,8.00
2012,03,25,10,01,8.10
2012,03,25,10,02,8.10
2012,03,25,10,03,8.10
2012,03,25,10,04,8.20
2012,03,25,10,05,8.20
2012,03,25,10,06,8.20
2012,03,25,10,07,8.20
2012,03,25,10,08,8.20
2012,03,25,10,09,8.20
2012,03,25,10,10,8.20
2012,03,25,10,11,8.20
2012,03,25,10,12,8.20
2012,03,25,10,13,8.20
2012,03,25,10,14,8.10
2012,03,25,10,15,8.10
2012,03,25,10,16,8.10
2012,03,25,10,17,8.20
2012,03,25,10,18,8.20
2012,03,25,10,19,8.10
2012,03,25,10,20,8.00
2012,03,25,10,21,8.00
2012,03,25,10,22,7.90
2012,03,25,10,23,7.90
2012,03,25,10,24,7.90
2012,03,25,10,25,7.90
2012,03,25,10,26,7.90
2012,03,25,10,27,7.90
2012,03,25,10,28,8.00
2012,03,25,10,29,7.90
2012,03,25,10,30,7.90
2012,03,25,10,31,7.90
2012,03,25,10,32,7.90
2012,03,25,10,33,8.00
2012,03,25,10,34,8.00
2012,03,25,10,35,8.10
2012,03,25,10,36,8.20
2012,03,25,10,37,8.20
2012,03,25,10,38,8.30
2012,03,25,10,39,8.30
2012,03,25,10,40,8.30
2012,03,25,10,41,8.20
2012,03,25,10,42,8.20
2012,03,25,10,43,8.20
2012,03,25,10,44,8.20
2012,03,25,10,45,8.30
2012,03,25,10,46,8.30
2012,03,25,10,47,8.40
2012,03,25,10,48,8.50
2012,03,25,10,49,8.60
2012,03,25,10,50,8.70
2012,03,25,10,51,8.80
2012,03,25,10,52,8.80
2012,03,25,10,53,8.90
2012,03,25,10,54,8.90
2012,03,25,10,55,8.90
2012,03,25,10,56,8.90
2012,03,25,10,57,9.00
2012,03,25,10,58,8.90
2012,03,25,10,59,8.80
2012,03,25,11,00,8.60
2012,03,25,11,01,8.40
2012,03,25,11,02,8.20
2012,03,25,11,03,8.00
2012,03,25,11,04,8.00
2012,03,25,11,05,8.00
2012,03,25,11,06,8.00
2012,03,25,11,07,8.00
2012,03,25,11,08,8.10
2012,03,25,11,09,8.10
2012,03,25,11,10,8.10
2012,03,25,11,11,8.10
2012,03,25,11,12,8.20
2012,03,25,11,13,8.20
2012,03,25,11,14,8.20
2012,03,25,11,15,8.20
2012,03,25,11,16,8.30
2012,03,25,11,17,8.30
2012,03,25,11,18,8.30
2012,03,25,11,19,8.30
2012,03,25,11,20,8.30
2012,03,25,11,21,8.30
2012,03,25,11,22,8.30
2012,03,25,11,23,8.30
2012,03,25,11,24,8.30
2012,03,25,11,25,8.30
2012,03,25,11,26,8.30
2012,03,25,11,27,8.20
2012,03,25,11,28,8.20
2012,03,25,11,29,8.20
2012,03,25,11,30,8.20
2012,03,25,11,31,8.30
2012,03,25,11,32,8.30
2012,03,25,11,33,8.40
2012,03,25,11,34,8.60
2012,03,25,11,35,8.60
2012,03,25,11,36,8.70
2012,03,25,11,37,8.70
2012,03,25,11,38,8.70
2012,03,25,11,39,8.70
2012,03,25,11,40,8.70
2012,03,25,11,41,8.70
2012,03,25,11,42,8.70
2012,03,25,11,43,8.70
2012,03,25,11,44,8.70
2012,03,25,11,45,8.70
2012,03,25,11,46,8.70
2012,03,25,11,47,8.60
2012,03,25,11,48,8.70
2012,03,25,11,49,8.70
2012,03,25,11,50,8.80
2012,03,25,11,51,8.80
2012,03,25,11,52,8.90
2012,03,25,11,53,8.90
2012,03,25,11,54,8.90
2012,03,25,11,55,9.00
2012,03,25,11,56,9.00
2012,03,25,11,57,9.10
2012,03,25,11,58,9.20
2012,03,25,11,59,9.30
2012,03,25,12,00,9.30
2012,03,25,12,01,9.40
2012,03,25,12,02,9.40
2012,03,25,12,03,9.40
2012,03,25,12,04,9.40
2012,03,25,12,05,9.40
2012,03,25,12,06,9.30
2012,03,25,12,07,9.10
2012,03,25,12,08,9.00
2012,03,25,12,09,8.90
2012,03,25,12,10,8.90
2012,03,25,12,11,8.80
2012,03,25,12,12,8.80
2012,03,25,12,13,8.80
2012,03,25,12,14,8.80
2012,03,25,12,15,8.90
2012,03,25,12,16,9.00
2012,03,25,12,17,9.00
2012,03,25,12,18,9.10
2012,03,25,12,19,9.10
2012,03,25,12,20,9.10
2012,03,25,12,21,9.00
2012,03,25,12,22,9.00
2012,03,25,12,23,9.00
2012,03,25,12,24,9.10
2012,03,25,12,25,9.20
2012,03,25,12,26,9.20
2012,03,25,12,27,9.20
2012,03,25,12,28,9.20
2012,03,25,12,29,9.30
2012,03,25,12,30,9.30
2012,03,25,12,31,9.30
2012,03,25,12,32,9.30
2012,03,25,12,33,9.30
2012,03,25,12,34,9.30
2012,03,25,12,35,9.30
2012,03,25,12,36,9.30
2012,03,25,12,37,9.30
2012,03,25,12,38,9.30
2012,03,25,12,39,9.30
2012,03,25,12,40,9.30
2012,03,25,12,41,9.40
2012,03,25,12,42,9.40
2012,03,25,12,43,9.40
2012,03,25,12,44,9.40
2012,03,25,12,45,9.50
2012,03,25,12,46,9.50
2012,03,25,12,47,9.40
2012,03,25,12,48,9.40
2012,03,25,12,49,9.40
2012,03,25,12,50,9.40
2012,03,25,12,51,9.50
2012,03,25,12,52,9.50
2012,03,25,12,53,9.60
2012,03,25,12,54,9.80
2012,03,25,12,55,9.90
2012,03,25,12,56,9.90
2012,03,25,12,57,9.90
2012,03,25,12,58,9.80
2012,03,25,12,59,9.70
2012,03,25,13,00,9.70
2012,03,25,13,01,9.60
2012,03,25,13,02,9.60
2012,03,25,13,03,9.60
2012,03,25,13,04,9.60
2012,03,25,13,05,9.70
2012,03,25,13,06,9.80
2012,03,25,13,07,9.90
2012,03,25,13,08,10.00
2012,03,25,13,09,10.00
2012,03,25,13,10,10.10
2012,03,25,13,11,10.10
2012,03,25,13,12,10.10
2012,03,25,13,13,10.20
2012,03,25,13,14,10.20
2012,03,25,13,15,10.20
2012,03,25,13,16,10.20
2012,03,25,13,17,10.30
2012,03,25,13,18,10.30
2012,03,25,13,19,10.30
2012,03,25,13,20,10.40
2012,03,25,13,21,10.40
2012,03,25,13,22,10.40
2012,03,25,13,23,10.40
2012,03,25,13,24,10.50
2012,03,25,13,25,10.60
2012,03,25,13,26,10.60
2012,03,25,13,27,10.60
2012,03,25,13,28,10.60
2012,03,25,13,29,10.60
2012,03,25,13,30,10.60
2012,03,25,13,31,10.60
2012,03,25,13,32,10.60
2012,03,25,13,33,10.60
2012,03,25,13,34,10.60
2012,03,25,13,35,10.70
2012,03,25,13,36,10.70
2012,03,25,13,37,10.70
2012,03,25,13,38,10.70
2012,03,25,13,39,10.70
2012,03,25,13,40,10.70
2012,03,25,13,41,10.70
2012,03,25,13,42,10.70
2012,03,25,13,43,10.80
2012,03,25,13,44,10.80
2012,03,25,13,45,10.80
2012,03,25,13,46,10.80
2012,03,25,13,47,10.80
2012,03,25,13,48,10.80
2012,03,25,13,49,10.80
2012,03,25,13,50,10.90
2012,03,25,13,51,10.90
2012,03,25,13,52,11.00
2012,03,25,13,53,11.10
2012,03,25,13,54,11.20
2012,03,25,13,55,11.30
2012,03,25,13,56,11.40
2012,03,25,13,57,11.50
2012,03,25,13,58,11.50
2012,03,25,13,59,11.60
2012,03,25,14,00,11.60
2012,03,25,14,01,11.50
2012,03,25,14,02,11.50
2012,03,25,14,03,11.50
2012,03,25,14,04,11.60
2012,03,25,14,05,11.60
2012,03,25,14,06,11.60
2012,03,25,14,07,11.60
2012,03,25,14,08,11.60
2012,03,25,14,09,11.60
2012,03,25,14,10,11.70
2012,03,25,14,11,11.70
2012,03,25,14,12,11.70
2012,03,25,14,13,11.70
2012,03,25,14,14,11.60
2012,03,25,14,15,11.50
2012,03,25,14,16,11.40
2012,03,25,14,17,11.30
2012,03,25,14,18,11.20
2012,03,25,14,19,11.20
2012,03,25,14,20,11.10
2012,03,25,14,21,11.20
2012,03,25,14,22,11.10
2012,03,25,14,23,11.00
2012,03,25,14,24,11.00
2012,03,25,14,25,11.00
2012,03,25,14,26,10.90
2012,03,25,14,27,10.90
2012,03,25,14,28,10.90
2012,03,25,14,29,10.80
2012,03,25,14,30,10.80
2012,03,25,14,31,10.70
2012,03,25,14,32,10.70
2012,03,25,14,33,10.70
2012,03,25,14,34,10.70
2012,03,25,14,35,10.70
2012,03,25,14,36,10.70
2012,03,25,14,37,10.70
2012,03,25,14,38,10.70
2012,03,25,14,39,10.70
2012,03,25,14,40,10.70
2012,03,25,14,41,10.70
2012,03,25,14,42,10.70
2012,03,25,14,43,10.80
2012,03,25,14,44,10.80
2012,03,25,14,45,10.80
2012,03,25,14,46,10.90
2012,03,25,14,47,10.90
2012,03,25,14,48,10.90
2012,03,25,14,49,10.90
2012,03,25,14,50,10.80
2012,03,25,14,51,10.80
2012,03,25,14,52,10.80
2012,03,25,14,53,10.80
2012,03,25,14,54,10.90
2012,03,25,14,55,11.00
2012,03,25,14,56,11.10
2012,03,25,14,57,11.20
2012,03,25,14,58,11.20
2012,03,25,14,59,11.20
2012,03,25,15,00,11.20
2012,03,25,15,01,11.30
2012,03,25,15,02,11.20
2012,03,25,15,03,11.10
2012,03,25,15,04,11.10
2012,03,25,15,05,11.10
2012,03,25,15,06,11.10
2012,03,25,15,07,11.10
2012,03,25,15,08,11.20
2012,03,25,15,09,11.20
2012,03,25,15,10,11.20
2012,03,25,15,11,11.10
2012,03,25,15,12,11.10
2012,03,25,15,13,10.90
2012,03,25,15,14,10.80
2012,03,25,15,15,10.70
2012,03,25,15,16,10.60
2012,03,25,15,17,10.60
2012,03,25,15,18,10.50
2012,03,25,15,19,10.40
2012,03,25,15,20,10.40
2012,03,25,15,21,10.40
2012,03,25,15,22,10.40
2012,03,25,15,23,10.40
2012,03,25,15,24,10.40
2012,03,25,15,25,10.40
2012,03,25,15,26,10.30
2012,03,25,15,27,10.40
2012,03,25,15,28,10.40
2012,03,25,15,29,10.40
2012,03,25,15,30,10.50
2012,03,25,15,31,10.50
2012,03,25,15,32,10.60
2012,03,25,15,33,10.60
2012,03,25,15,34,10.70
2012,03,25,15,35,10.70
2012,03,25,15,36,10.80
2012,03,25,15,37,10.80
2012,03,25,15,38,10.90
2012,03,25,15,39,11.00
2012,03,25,15,40,11.10
2012,03,25,15,41,11.10
2012,03,25,15,42,11.20
2012,03,25,15,43,11.20
2012,03,25,15,44,11.30
2012,03,25,15,45,11.30
2012,03,25,15,46,11.30
2012,03,25,15,47,11.30
2012,03,25,15,48,11.30
2012,03,25,15,49,11.40
2012,03,25,15,50,11.50
2012,03,25,15,51,11.50
2012,03,25,15,52,11.60
2012,03,25,15,53,11.70
2012,03,25,15,54,11.70
2012,03,25,15,55,11.80
2012,03,25,15,56,11.80
2012,03,25,15,57,11.80
2012,03,25,15,58,11.90
2012,03,25,15,59,11.80
2012,03,25,16,00,11.80
2012,03,25,16,01,11.90
2012,03,25,16,02,11.90
2012,03,25,16,03,11.90
2012,03,25,16,04,11.90
2012,03,25,16,05,12.00
2012,03,25,16,06,12.00
2012,03,25,16,07,12.00
2012,03,25,16,08,12.00
2012,03,25,16,09,12.00
2012,03,25,16,10,12.10
2012,03,25,16,11,12.10
2012,03,25,16,12,12.20
2012,03,25,16,13,12.20
2012,03,25,16,14,12.30
2012,03,25,16,15,12.30
2012,03,25,16,16,12.40
2012,03,25,16,17,12.40
2012,03,25,16,18,12.50
2012,03,25,16,19,12.50
2012,03,25,16,20,12.50
2012,03,25,16,21,12.60
2012,03,25,16,22,12.70
2012,03,25,16,23,12.80
2012,03,25,16,24,12.80
2012,03,25,16,25,12.90
2012,03,25,16,26,12.90
2012,03,25,16,27,13.00
2012,03,25,16,28,13.10
2012,03,25,16,29,13.10
2012,03,25,16,30,13.10
2012,03,25,16,31,13.10
2012,03,25,16,32,13.10
2012,03,25,16,33,13.10
2012,03,25,16,34,13.10
2012,03,25,16,35,13.10
2012,03,25,16,36,13.10
2012,03,25,16,37,13.10
2012,03,25,16,38,13.10
2012,03,25,16,39,13.20
2012,03,25,16,40,13.20
2012,03,25,16,41,13.30
2012,03,25,16,42,13.30
2012,03,25,16,43,13.40
2012,03,25,16,44,13.40
2012,03,25,16,45,13.50
2012,03,25,16,46,13.50
2012,03,25,16,47,13.60
2012,03,25,16,48,13.60
2012,03,25,16,49,13.70
2012,03,25,16,50,13.80
2012,03,25,16,51,13.80
2012,03,25,16,52,13.80
2012,03,25,16,53,13.80
2012,03,25,16,54,13.80
2012,03,25,16,55,13.80
2012,03,25,16,56,13.80
2012,03,25,16,57,13.70
2012,03,25,16,58,13.70
2012,03,25,16,59,13.60
2012,03,25,17,00,13.50
2012,03,25,17,01,13.40
2012,03,25,17,02,13.40
2012,03,25,17,03,13.30
2012,03,25,17,04,13.20
2012,03,25,17,05,13.20
2012,03,25,17,06,13.10
2012,03,25,17,07,13.10
2012,03,25,17,08,13.00
2012,03,25,17,09,12.90
2012,03,25,17,10,12.90
2012,03,25,17,11,12.90
2012,03,25,17,12,12.80
2012,03,25,17,13,12.70
2012,03,25,17,14,12.60
2012,03,25,17,15,12.50
2012,03,25,17,16,12.40
2012,03,25,17,17,12.30
2012,03,25,17,18,12.30
2012,03,25,17,19,12.20
2012,03,25,17,20,12.20
2012,03,25,17,21,12.10
2012,03,25,17,22,12.00
2012,03,25,17,23,12.00
2012,03,25,17,24,11.90
2012,03,25,17,25,11.90
2012,03,25,17,26,11.90
2012,03,25,17,27,11.80
2012,03,25,17,28,11.80
2012,03,25,17,29,11.80
2012,03,25,17,30,11.80
2012,03,25,17,31,11.80
2012,03,25,17,32,11.80
2012,03,25,17,33,11.80
2012,03,25,17,34,11.80
2012,03,25,17,35,11.70
2012,03,25,17,36,11.60
2012,03,25,17,37,11.60
2012,03,25,17,38,11.50
2012,03,25,17,39,11.40
2012,03,25,17,40,11.30
2012,03,25,17,41,11.30
2012,03,25,17,42,11.20
2012,03,25,17,43,11.20
2012,03,25,17,44,11.10
2012,03,25,17,45,11.10
2012,03,25,17,46,11.00
2012,03,25,17,47,11.00
2012,03,25,17,48,11.00
2012,03,25,17,49,10.90
2012,03,25,17,50,10.90
2012,03,25,17,51,10.90
2012,03,25,17,52,10.80
2012,03,25,17,53,10.80